Regional Weather Roundup
Issued by NWS

Home | Current Version | Previous Version | Text Only | Print | Product List | Glossary Off
Versions: 1 2 3 4 5 6 7 8 9 10 11 12 13 14 15 16 17 18 19 20 21 22 23 24 25 26 27 28 29 30 31 32 33 34 35 36 37 38 39 40 41 42 43 44 45 46 47 48 49 50

000
ASUS45 KCYS 291310
RWRWY

WYOMING REGIONAL WEATHER ROUNDUP
NATIONAL WEATHER SERVICE CHEYENNE WY
700 AM MDT SUN MAR 29 2015

NOTE:  "FAIR" INDICATES FEW OR NO CLOUDS BELOW 12,000 FEET
WITH NO SIGNIFICANT WEATHER AND/OR OBSTRUCTIONS TO VISIBILITY.

WYZ001-291400-
YELLOWSTONE NATIONAL PARK

CITY           SKY/WX    TMP DP  RH WIND       PRES   REMARKS
LK YELLOWSTONE   N/A     16  11  80 CALM      30.34R
W YELLOWSTONE  NOT AVBL

$$
WYZ002>013-054>058-071-098>099-291400-
NORTHERN WYOMING

CITY           SKY/WX    TMP DP  RH WIND       PRES   REMARKS
JACKSON        CLEAR     23  32 100 CALM      30.33S
CODY           FAIR      39  14  35 NW3       30.23S
GREYBULL       FAIR      37  20  50 W6        30.23S WCI  32
WORLAND        FAIR      32  20  61 S7        30.25S WCI  26
SHERIDAN       FAIR      35  23  61 NW10      30.23S WCI  27
BUFFALO        FAIR      39  22  50 SW5       30.23S
GILLETTE       FAIR      33  27  78 W13       30.23R WCI  24
HULETT         CLOUDY    41  32  70 CALM      30.24R
NEWCASTLE      FAIR      39  28  65 NW23G31   30.20R WCI  29

$$
WYZ014>020-022>026-101>103-291400-
CENTRAL WYOMING

CITY           SKY/WX    TMP DP  RH WIND       PRES   REMARKS
BIG PINEY      FAIR      18  12  77 NW6       30.33R WCI  10
PINEDALE       FAIR      23  19  86 N7        30.33R WCI  15
DUBOIS         FAIR      28  14  54 NW10      30.28S WCI  19
LANDER         FAIR      36  16  44 W9        30.27R WCI  29
RIVERTON       FAIR      33  14  45 S7        30.29R WCI  27
CASPER         FAIR      25  17  72 W5        30.30R WCI  19
DOUGLAS        FAIR      38  26  62 NW16      30.28R WCI  29

$$
WYZ021-027>030-104>119-291400-
SOUTHERN WYOMING

CITY           SKY/WX    TMP DP  RH WIND       PRES   REMARKS
EVANSTON       FAIR      34  16  47 NE5       30.33R WCI  30
FORT BRIDGER   FAIR      35  15  43 W3        30.37S
ROCK SPRINGS   FAIR      31  16  54 SE8       30.33R WCI  23
DIXON          FAIR      26  19  75 CALM      30.35R
RAWLINS        FAIR      25  12  58 NE3       30.33R
SARATOGA       FAIR      32  14  47 CALM      30.35R
LARAMIE        FAIR      25  12  58 NW7       30.31R WCI  17
CHEYENNE       FAIR      37  17  44 N17G29    30.24R WCI  27
TORRINGTON     FAIR      42  27  55 NW13G24   30.22R
PINE BLUFFS    FAIR      37  25  60 NW23G38   30.23R WCI  26

$$


USA.gov is the U.S. government's official web portal to all federal, state and local government web resources and services.